Вернуться в каталог

STARLINK-34340

АктивенСвязьSSO
NORAD 64163·PAYLOAD·🇺🇸 United States

Запущен May 27, 2025 с Vandenberg Space Force Base

Loading…

Ближайшие Пролёты (ближайшие 24 часа)

TLE

СвежийSource: CelesTrak SupGP

Эпоха: Sep 15, 2026, 04:04 UTC

1 64163C 25112T   26258.16993056 -.00010898  00000+0 -33823-3 0  2580
2 64163  97.2824 305.3688 0000893  93.9561 306.0763 15.33450697    19

Отслеживайте STARLINK-34340 в реальном времени с AllMySat

Download on the App Store